{"data":{"norad_id":58184,"intl_designator":"2023-167K","name":"STARLINK-30801","alt_names":[],"object_type":"PAYLOAD","status":"ACTIVE","operator":null,"country":"US","launch_date":"2023-10-30","launch_site_code":"AFETR","launch_vehicle":null,"mission":null,"orbit_class":"UNKNOWN","rcs_meters":null,"size_class":null,"mass_kg":null,"dimensions":null,"purposes":["comms"],"wikipedia_slug":null,"has_3d_model":false,"image_url":null,"decayed_at":null,"tle_current":{"epoch":"2026-09-20T00:56:54.346560Z","epoch_age_seconds":180295,"freshness":"STALE","line1":"1 58184U 23167K   26263.03951790 -.00000005  00000+0  93356-5 0  9994","line2":"2 58184  42.9963 126.2185 0000528 289.6987  70.3808 15.27579015160702","mean_motion":15.27579015,"eccentricity":5.28e-5,"inclination_deg":42.9963,"raan_deg":126.2185,"arg_perigee_deg":289.6987,"mean_anomaly_deg":70.3808,"bstar":9.3356e-6,"rev_number":16070,"period_min":94.266809497903,"perigee_km":482.68977470399,"apogee_km":483.41431626719,"semimajor_km":6861.1890454856,"source":"CELESTRAK","updated_at":"2026-09-21T09:00:33.827713Z"}}}